Time_in_sec,gx,gy,gz
1314271012.64273977,0.04397591,0.03836538,-0.99829566
1314271012.70048261,0.04397683,0.03842923,-0.99829316
1314271012.75245690,0.04376648,0.03841696,-0.99830288
1314271012.80081558,0.04377338,0.03829405,-0.99830730
1314271012.85250688,0.04389785,0.03831908,-0.99830087
1314271012.90218115,0.04377772,0.03835111,-0.99830492
1314271012.95250583,0.04378104,0.03824634,-0.99830879
1314271013.00050330,0.04372564,0.03803944,-0.99831912
1314271013.04047942,0.04358805,0.03792237,-0.99832959
1314271013.10162473,0.04372919,0.03816793,-0.99831406
1314271013.15245986,0.04389081,0.03804767,-0.99831156
1314271013.20051885,0.04381824,0.03818591,-0.99830947
1314271013.25361109,0.04399218,0.03835288,-0.99829542
1314271013.30201483,0.04405012,0.03820419,-0.99829857
1314271013.34961224,0.04396664,0.03829580,-0.99829874
1314271013.40049767,0.04399436,0.03846264,-0.99829110
1314271013.45246577,0.04420643,0.03834748,-0.99828616
1314271013.50048089,0.04410173,0.03842338,-0.99828787
1314271013.55372024,0.04394501,0.03855630,-0.99828966
1314271013.60047960,0.04374268,0.03868974,-0.99829338
1314271013.65362096,0.04347799,0.03890499,-0.99829658
1314271013.69980168,0.04346386,0.03858378,-0.99830966
1314271013.74985290,0.04341055,0.03860036,-0.99831134
1314271013.80047154,0.04328503,0.03842388,-0.99832360
1314271013.84948945,0.04340284,0.03851237,-0.99831508
1314271013.90089083,0.04331294,0.03855801,-0.99831722
1314271013.95247173,0.04321969,0.03862297,-0.99831875
1314271013.98984933,0.04330407,0.03855131,-0.99831786
1314271014.04952645,0.04326117,0.03847856,-0.99832253
1314271014.10172248,0.04299425,0.03837410,-0.99833808
1314271014.14962006,0.04287526,0.03818505,-0.99835045
1314271014.20152044,0.04275136,0.03820079,-0.99835516
1314271014.25247192,0.04256983,0.03833677,-0.99835770
1314271014.30160737,0.04208819,0.03838096,-0.99837643
1314271014.34955812,0.04187051,0.03850090,-0.99838096
1314271014.40067554,0.04180292,0.03848631,-0.99838435
1314271014.45246291,0.04164450,0.03827866,-0.99839896
1314271014.49857044,0.04149699,0.03836078,-0.99840195
1314271014.55251193,0.04149797,0.03826100,-0.99840574
1314271014.60050988,0.04161933,0.03828989,-0.99839958
1314271014.65246415,0.04153084,0.03817058,-0.99840783
1314271014.70046854,0.04123166,0.03797949,-0.99842752
1314271014.74956632,0.04117084,0.03805239,-0.99842725
1314271014.80044413,0.04106455,0.03806505,-0.99843115
1314271014.84879661,0.04128877,0.03820487,-0.99841656
1314271014.90399218,0.04136589,0.03805957,-0.99841892
1314271014.94849610,0.04137339,0.03798135,-0.99842158
1314271015.00057364,0.04143443,0.03789100,-0.99842249
1314271015.05024219,0.04146707,0.03800208,-0.99841691
1314271015.10045409,0.04139954,0.03806126,-0.99841746
1314271015.15041971,0.04144488,0.03799468,-0.99841811
1314271015.20068574,0.04163628,0.03809439,-0.99840635
1314271015.24849343,0.04163616,0.03822268,-0.99840145
1314271015.29851222,0.04136126,0.03837831,-0.99840691
1314271015.34975863,0.04140664,0.03835738,-0.99840583
1314271015.40053225,0.04136035,0.03868426,-0.99839514
1314271015.44846010,0.04157460,0.03839200,-0.99839752
1314271015.50050998,0.04160322,0.03838095,-0.99839675
1314271015.54845715,0.04153299,0.03836796,-0.99840018
1314271015.59271216,0.04158162,0.03838840,-0.99839737
1314271015.65249014,0.04162921,0.03824111,-0.99840103
1314271015.69830728,0.04162082,0.03847780,-0.99839229
1314271015.75247121,0.04170719,0.03849486,-0.99838803
1314271015.80059886,0.04173128,0.03862169,-0.99838212
1314271015.85254598,0.04205689,0.03851356,-0.99837264
1314271015.90133405,0.04215583,0.03852150,-0.99836816
1314271015.95245481,0.04203218,0.03876729,-0.99836386
1314271016.00054789,0.04203876,0.03864011,-0.99836851
1314271016.05260110,0.04209021,0.03859345,-0.99836815
1314271016.10221505,0.04215769,0.03861608,-0.99836443
1314271016.14975739,0.04225037,0.03868004,-0.99835803
1314271016.20056534,0.04226420,0.03870313,-0.99835655
1314271016.25402474,0.04244237,0.03855100,-0.99835488
1314271016.30058146,0.04256517,0.03846744,-0.99835287
1314271016.34952545,0.04265787,0.03835939,-0.99835308
1314271016.40151191,0.04240501,0.03850915,-0.99835808
1314271016.44950104,0.04230814,0.03855190,-0.99836054
1314271016.50446701,0.04229111,0.03846335,-0.99836468
1314271016.54955935,0.04258619,0.03879894,-0.99833915
1314271016.60149741,0.04244051,0.03889402,-0.99834165
1314271016.64955282,0.04236689,0.03908849,-0.99833719
1314271016.70094323,0.04194035,0.03918556,-0.99835139
1314271016.74995470,0.04225050,0.03910317,-0.99834154
1314271016.80046964,0.04221111,0.03921607,-0.99833878
1314271016.84961176,0.04228078,0.03925680,-0.99833423
1314271016.90072274,0.04229595,0.03951375,-0.99832345
1314271016.95247507,0.04228694,0.03935068,-0.99833028
1314271017.00154448,0.04217950,0.03913800,-0.99834318
1314271017.05247521,0.04255754,0.03925953,-0.99832236
1314271017.10075355,0.04242091,0.03936267,-0.99832412
1314271017.14916682,0.04250070,0.03945398,-0.99831712
1314271017.20179582,0.04245760,0.03920560,-0.99832874
1314271017.24997187,0.04269524,0.03911542,-0.99832214
1314271017.30450130,0.04271077,0.03918794,-0.99831863
1314271017.35246897,0.04263999,0.03905164,-0.99832700
1314271017.40053844,0.04282160,0.03909722,-0.99831744
1314271017.44952822,0.04293846,0.03893018,-0.99831895
1314271017.50048709,0.04283817,0.03879614,-0.99832848
1314271017.54961681,0.04273934,0.03876945,-0.99833375
1314271017.60152054,0.04263565,0.03875392,-0.99833879
1314271017.65044880,0.04280309,0.03894745,-0.99832409
1314271017.70452452,0.04295972,0.03879409,-0.99832333
1314271017.74932480,0.04286261,0.03874877,-0.99832927
1314271017.80047631,0.04288373,0.03878291,-0.99832704
1314271017.84050226,0.04309384,0.03852761,-0.99832787
1314271017.90053034,0.04297096,0.03840949,-0.99833772
1314271017.94848919,0.04287660,0.03828440,-0.99834658
1314271018.00057030,0.04292237,0.03791734,-0.99835863
1314271018.04860616,0.04311251,0.03781291,-0.99835439
1314271018.10147500,0.04310237,0.03791660,-0.99835090
1314271018.14846587,0.04327695,0.03801715,-0.99833952
1314271018.20049334,0.04320580,0.03794944,-0.99834518
1314271018.24850106,0.04313762,0.03804386,-0.99834453
1314271018.30047297,0.04305406,0.03792425,-0.99835269
1314271018.34951758,0.04331714,0.03791723,-0.99834158
1314271018.40103769,0.04325954,0.03822457,-0.99833236
1314271018.44855714,0.04317241,0.03842577,-0.99832840
1314271018.49931431,0.04301171,0.03854149,-0.99833088
1314271018.55037951,0.04305990,0.03856835,-0.99832777
1314271018.60052991,0.04328821,0.03879304,-0.99830919
1314271018.64849877,0.04350303,0.03870403,-0.99830330
1314271018.70049620,0.04365832,0.03886110,-0.99829042
1314271018.75019789,0.04375538,0.03880772,-0.99828825
1314271018.80054188,0.04354099,0.03856907,-0.99830687
1314271018.85353303,0.04358347,0.03847490,-0.99830865
1314271018.90465736,0.04371670,0.03855111,-0.99829989
1314271018.95023298,0.04392019,0.03847164,-0.99829402
1314271019.00095272,0.04405820,0.03857113,-0.99828410
1314271019.04945946,0.04412934,0.03862347,-0.99827893
1314271019.10046744,0.04403743,0.03865625,-0.99828172
1314271019.14993763,0.04407698,0.03868385,-0.99827891
1314271019.20046902,0.04402947,0.03864832,-0.99828238
1314271019.24906015,0.04399720,0.03869829,-0.99828187
1314271019.30385780,0.04399140,0.03883138,-0.99827696
1314271019.35249901,0.04403638,0.03878688,-0.99827670
1314271019.40065360,0.04428801,0.03884695,-0.99826324
1314271019.45247388,0.04432337,0.03859277,-0.99827152
1314271019.50153184,0.04431943,0.03852061,-0.99827449
1314271019.54993415,0.04442429,0.03834456,-0.99827660
1314271019.60068750,0.04421582,0.03820214,-0.99829132
1314271019.64960766,0.04424525,0.03818860,-0.99829053
1314271019.70171165,0.04453701,0.03835367,-0.99827123
1314271019.75357628,0.04432917,0.03832939,-0.99828141
1314271019.80048704,0.04436410,0.03853341,-0.99827201
1314271019.85251260,0.04450153,0.03856491,-0.99826468
1314271019.90048814,0.04449717,0.03857561,-0.99826446
1314271019.94953227,0.04426316,0.03856979,-0.99827508
1314271020.00045538,0.04422452,0.03860809,-0.99827532
1314271020.05362177,0.04451788,0.03873910,-0.99825720
1314271020.10178661,0.04453311,0.03862597,-0.99826091
1314271020.15257621,0.04436034,0.03877747,-0.99826272
1314271020.20050502,0.04423588,0.03883344,-0.99826607
1314271020.25248981,0.04409775,0.03868468,-0.99827796
1314271020.30050182,0.04419607,0.03875039,-0.99827106
1314271020.34965014,0.04424656,0.03865962,-0.99827235
1314271020.40048695,0.04404301,0.03846027,-0.99828905
1314271020.45259213,0.04408397,0.03849680,-0.99828583
1314271020.49962425,0.04411594,0.03817652,-0.99829672
1314271020.54961038,0.04428953,0.03821799,-0.99828745
1314271020.60152936,0.04429027,0.03828987,-0.99828466
1314271020.64852047,0.04437853,0.03819372,-0.99828442
1314271020.70081019,0.04435997,0.03828288,-0.99828183
1314271020.74950314,0.04470263,0.03815434,-0.99827147
1314271020.80099225,0.04502496,0.03826455,-0.99825276
1314271020.84865880,0.04485858,0.03833595,-0.99825751
1314271020.90155029,0.04493632,0.03842034,-0.99825077
1314271020.94861889,0.04493141,0.03836867,-0.99825298
1314271021.00111246,0.04490006,0.03817527,-0.99826181
1314271021.04855466,0.04494057,0.03826057,-0.99825672
1314271021.10150790,0.04507703,0.03813621,-0.99825532
1314271021.14851069,0.04499463,0.03814023,-0.99825889
1314271021.20047665,0.04530431,0.03828120,-0.99823948
1314271021.24921870,0.04548390,0.03825493,-0.99823233
1314271021.29842353,0.04554939,0.03831633,-0.99822698
1314271021.34918857,0.04544669,0.03818274,-0.99823678
1314271021.40051842,0.04532100,0.03812627,-0.99824466
1314271021.44849324,0.04505488,0.03799176,-0.99826183
1314271021.50049520,0.04512407,0.03808568,-0.99825513
1314271021.54995823,0.04494804,0.03781917,-0.99827320
1314271021.60151100,0.04504701,0.03819634,-0.99825438
1314271021.65331888,0.04496984,0.03836594,-0.99825136
1314271021.70161533,0.04496192,0.03839009,-0.99825078
1314271021.74849486,0.04520637,0.03850072,-0.99823548
1314271021.80154228,0.04545302,0.03840050,-0.99822814
1314271021.84849906,0.04543067,0.03852584,-0.99822433
1314271021.90147686,0.04564451,0.03872187,-0.99820699
1314271021.95247459,0.04561053,0.03886070,-0.99820315
1314271022.00044727,0.04565385,0.03893150,-0.99819841
1314271022.04975080,0.04582035,0.03885664,-0.99819370
1314271022.10196185,0.04588823,0.03889758,-0.99818898
1314271022.14953041,0.04591386,0.03897275,-0.99818487
1314271022.20061588,0.04584136,0.03891549,-0.99819044
1314271022.25247359,0.04600903,0.03914447,-0.99817377
1314271022.30048442,0.04590757,0.03896796,-0.99818535
1314271022.35006738,0.04574639,0.03899220,-0.99819180
1314271022.40162110,0.04560214,0.03930938,-0.99818596
1314271022.44983816,0.04574822,0.03939037,-0.99817609
1314271022.50195098,0.04577914,0.03951707,-0.99816966
1314271022.54932785,0.04581547,0.03945095,-0.99817061
1314271022.60061097,0.04591568,0.03915937,-0.99817749
1314271022.64059758,0.04617661,0.03918587,-0.99816441
1314271022.70049024,0.04629939,0.03924416,-0.99815643
1314271022.74957299,0.04638029,0.03927095,-0.99815162
1314271022.80054903,0.04649703,0.03940660,-0.99814085
1314271022.85361409,0.04667139,0.03923059,-0.99813964
1314271022.90193820,0.04668799,0.03918798,-0.99814054
1314271022.95246291,0.04650875,0.03900535,-0.99815606
1314271023.00060081,0.04652641,0.03903050,-0.99815425
1314271023.05248141,0.04664000,0.03894368,-0.99815234
1314271023.10148764,0.04697737,0.03909522,-0.99813060
1314271023.14975572,0.04714438,0.03914601,-0.99812073
1314271023.20152068,0.04720515,0.03901479,-0.99812300
1314271023.24931002,0.04717231,0.03898715,-0.99812563
1314271023.29976654,0.04736082,0.03893484,-0.99811875
1314271023.34923220,0.04755834,0.03902483,-0.99810584
1314271023.40062070,0.04745806,0.03893955,-0.99811394
1314271023.45248437,0.04751637,0.03874080,-0.99811890
1314271023.50051141,0.04782398,0.03869064,-0.99810616
1314271023.54949212,0.04770605,0.03874601,-0.99810965
1314271023.60147786,0.04770381,0.03888241,-0.99810446
1314271023.64937878,0.04762575,0.03885493,-0.99810925
1314271023.70154428,0.04763877,0.03873172,-0.99811342
1314271023.74960303,0.04756606,0.03873893,-0.99811661
1314271023.80159926,0.04744794,0.03868223,-0.99812443
1314271023.84851193,0.04724931,0.03874067,-0.99813159
1314271023.90150476,0.04720729,0.03856819,-0.99814025
1314271023.95245576,0.04745054,0.03875499,-0.99812148
1314271024.00075054,0.04758990,0.03867802,-0.99811783
1314271024.04957080,0.04761354,0.03869939,-0.99811588
1314271024.09837365,0.04748621,0.03840530,-0.99813330
1314271024.14893389,0.04716210,0.03820816,-0.99815624
1314271024.20082569,0.04715959,0.03805755,-0.99816211
1314271024.24848270,0.04715679,0.03805289,-0.99816242
1314271024.30065799,0.04721703,0.03818888,-0.99815438
1314271024.34980679,0.04717830,0.03832033,-0.99815117
1314271024.40070868,0.04737728,0.03821467,-0.99814580
1314271024.44963217,0.04739862,0.03821341,-0.99814483
1314271024.49823236,0.04723505,0.03811413,-0.99815638
1314271024.54947233,0.04741565,0.03837432,-0.99813785
1314271024.60049200,0.04734321,0.03824350,-0.99814631
1314271024.65246964,0.04746164,0.03843858,-0.99813319
1314271024.70223689,0.04757915,0.03862253,-0.99812050
1314271024.74968958,0.04743879,0.03886206,-0.99811788
1314271024.80044913,0.04734256,0.03872496,-0.99812778
1314271024.85011292,0.04710884,0.03862215,-0.99814282
1314271024.90213370,0.04717518,0.03876996,-0.99813396
1314271024.95248508,0.04695950,0.03865094,-0.99814874
1314271025.00051212,0.04696082,0.03859046,-0.99815102
1314271025.05254912,0.04711586,0.03853947,-0.99814568
1314271025.10049582,0.04708271,0.03836817,-0.99815385
1314271025.14947271,0.04710398,0.03832844,-0.99815437
1314271025.20161152,0.04714343,0.03823781,-0.99815598
1314271025.24953723,0.04746428,0.03825624,-0.99814007
1314271025.30449438,0.04755390,0.03831393,-0.99813359
1314271025.34958029,0.04754914,0.03824593,-0.99813643
1314271025.40084696,0.04719647,0.03811032,-0.99815835
1314271025.45250273,0.04693286,0.03820008,-0.99816735
1314271025.50059438,0.04694024,0.03802744,-0.99817360
1314271025.54963827,0.04698358,0.03807509,-0.99816974
1314271025.60151672,0.04689864,0.03782987,-0.99818306
1314271025.65260100,0.04702348,0.03801099,-0.99817030
1314271025.70047879,0.04710731,0.03814747,-0.99816115
1314271025.75004363,0.04708817,0.03836070,-0.99815388
1314271025.80053353,0.04698852,0.03851845,-0.99815250
1314271025.84886527,0.04676439,0.03865520,-0.99815774
1314271025.90058827,0.04687002,0.03872437,-0.99815010
1314271025.94974256,0.04696497,0.03877223,-0.99814378
1314271026.00048089,0.04694670,0.03869202,-0.99814775
1314271026.04929495,0.04681238,0.03875154,-0.99815175
1314271026.10438728,0.04713599,0.03845202,-0.99814811
1314271026.14949226,0.04703444,0.03835546,-0.99815661
1314271026.20162225,0.04691987,0.03832468,-0.99816319
1314271026.25248981,0.04685337,0.03853288,-0.99815829
1314271026.30060101,0.04685700,0.03870608,-0.99815142
1314271026.34968400,0.04688817,0.03865005,-0.99815213
1314271026.40163040,0.04702988,0.03887339,-0.99813679
1314271026.44962859,0.04714286,0.03880560,-0.99813410
1314271026.50108242,0.04717203,0.03888271,-0.99812972
1314271026.54961038,0.04691423,0.03874416,-0.99814726
1314271026.60156393,0.04683293,0.03870573,-0.99815256
1314271026.65269732,0.04668816,0.03893924,-0.99815026
1314271026.70049977,0.04663070,0.03898548,-0.99815115
1314271026.75244522,0.04650069,0.03904207,-0.99815500
1314271026.80050397,0.04647953,0.03885621,-0.99816324
1314271026.84919429,0.04654969,0.03887016,-0.99815942
1314271026.89852667,0.04649916,0.03882220,-0.99816365
1314271026.94953775,0.04635553,0.03881656,-0.99817055
1314271027.00051403,0.04643912,0.03883072,-0.99816611
1314271027.04847288,0.04631104,0.03870896,-0.99817679
1314271027.10065532,0.04637329,0.03905042,-0.99816060
1314271027.14956141,0.04640674,0.03882506,-0.99816784
1314271027.20046449,0.04651097,0.03873797,-0.99816637
1314271027.25032616,0.04646936,0.03881679,-0.99816524
1314271027.29841733,0.04640583,0.03845841,-0.99818207
1314271027.34949732,0.04609277,0.03866591,-0.99818856
1314271027.40050507,0.04608586,0.03848981,-0.99819569
1314271027.43938446,0.04621671,0.03858100,-0.99818612
1314271027.50048804,0.04639764,0.03862576,-0.99817599
1314271027.55021787,0.04620206,0.03895912,-0.99817211
1314271027.59247875,0.04628130,0.03925325,-0.99815691
1314271027.64959550,0.04608519,0.03921757,-0.99816739
1314271027.69825625,0.04646476,0.03919100,-0.99815084
1314271027.74847460,0.04645589,0.03916755,-0.99815217
1314271027.80078673,0.04628126,0.03908990,-0.99816333
1314271027.85247898,0.04650443,0.03902600,-0.99815545
1314271027.90057826,0.04653639,0.03892529,-0.99815790
1314271027.95015001,0.04651409,0.03876725,-0.99816509
1314271028.00104570,0.04659416,0.03878965,-0.99816048
1314271028.04960251,0.04678776,0.03869849,-0.99815496
1314271028.10011292,0.04674378,0.03884017,-0.99815152
1314271028.14951730,0.04681575,0.03891312,-0.99814531
1314271028.20047975,0.04677690,0.03893941,-0.99814610
1314271028.25259495,0.04655358,0.03899415,-0.99815441
1314271028.30049229,0.04667692,0.03905069,-0.99814644
1314271028.34999585,0.04660657,0.03930010,-0.99813993
1314271028.40067434,0.04676286,0.03920259,-0.99813646
1314271028.45259190,0.04668610,0.03923818,-0.99813865
1314271028.50210142,0.04669815,0.03925979,-0.99813724
1314271028.55272913,0.04678641,0.03948343,-0.99812429
1314271028.60058832,0.04653468,0.03944803,-0.99813745
1314271028.65246820,0.04674555,0.03960494,-0.99812139
1314271028.70054436,0.04679070,0.03956486,-0.99812086
1314271028.75244141,0.04682204,0.03940662,-0.99812565
1314271028.80059361,0.04703064,0.03962878,-0.99810705
1314271028.85361624,0.04706340,0.03958329,-0.99810731
1314271028.89883518,0.04710326,0.03972175,-0.99809993
1314271028.94987583,0.04724263,0.03970827,-0.99809388
1314271029.00103092,0.04744093,0.03983196,-0.99807954
1314271029.05248380,0.04737410,0.03985679,-0.99808173
1314271029.10062432,0.04727385,0.03989074,-0.99808512
1314271029.14971399,0.04751466,0.03990432,-0.99807314
1314271029.20148349,0.04748232,0.03999113,-0.99807121
1314271029.25246453,0.04730291,0.03990790,-0.99808306
1314271029.30171609,0.04716436,0.03981588,-0.99809329
1314271029.34973645,0.04739995,0.03978062,-0.99808354
1314271029.40086341,0.04731331,0.03970916,-0.99809049
1314271029.45261407,0.04710834,0.03955426,-0.99810634
1314271029.50055122,0.04703354,0.03941873,-0.99811523
1314271029.54957771,0.04711935,0.03961107,-0.99810357
1314271029.60044360,0.04704668,0.03950622,-0.99811115
1314271029.64951181,0.04678441,0.03960966,-0.99811938
1314271029.70156860,0.04667161,0.03963538,-0.99812364
1314271029.75350928,0.04677458,0.03961622,-0.99811958
1314271029.80060148,0.04657365,0.03971473,-0.99812506
1314271029.85248399,0.04663385,0.03956413,-0.99812823
1314271029.90047216,0.04659615,0.03968915,-0.99812503
1314271029.94964910,0.04668518,0.03960259,-0.99812431
1314271030.00052667,0.04670008,0.03935063,-0.99813357
1314271030.04856777,0.04660007,0.03928601,-0.99814079
1314271030.10163307,0.04653478,0.03931001,-0.99814289
1314271030.15030050,0.04650812,0.03904721,-0.99815445
1314271030.20045948,0.04662341,0.03895505,-0.99815267
1314271030.24959517,0.04620304,0.03908475,-0.99816715
1314271030.30049634,0.04638583,0.03914954,-0.99815613
1314271030.34967136,0.04638818,0.03897205,-0.99816297
1314271030.40047073,0.04619976,0.03930774,-0.99815855
1314271030.44850111,0.04621348,0.03900210,-0.99816990
1314271030.50046754,0.04604954,0.03901105,-0.99817713
1314271030.55013871,0.04608563,0.03900962,-0.99817552
1314271030.60042548,0.04578125,0.03900303,-0.99818978
